Wind_Speed
95 94 92 88 79 71 67 66 68 62 60 54 50 45 44 44 44 44 42 40 38 34 34 36 36 35 35 33 31 29 28 28 27 26 26 25 24 23 20 19 17 17 19 22 24 27 29 30 32
97 94 93 89 82 72 71 71 67 65 62 56 53 48 47 48 48 46 43 40 36 34 37 35 35 35 33 31 30 30 30 29 28 27 26 26 23 21 20 19 19 20 23 24 27 29 31 33 35
99 96 93 88 82 76 78 75 69 68 62 59 54 50 49 49 49 45 43 42 37 34 35 35 34 33 32 31 31 31 30 30 29 28 26 25 23 22 23 22 22 23 25 27 30 33 35 37 39
101 99 95 90 81 84 83 78 73 71 65 63 57 52 51 50 50 46 45 45 41 37 33 32 33 32 31 30 30 30 30 29 29 28 27 27 25 24 24 24 25 26 28 32 33 35 38 40 43
105 103 99 92 86 89 85 81 76 73 69 65 61 54 53 52 50 50 47 46 43 40 35 32 31 31 30 30 31 32 30 29 29 30 29 26 26 27 27 28 29 30 33 37 38 40 42 45 48
111 105 101 93 92 93 88 84 81 77 73 68 64 57 54 54 52 53 49 47 46 42 40 37 35 34 33 33 33 33 32 31 32 29 27 26 27 28 30 31 33 35 38 40 41 43 46 49 53
113 108 101 99 99 97 89 86 85 79 75 72 66 62 58 59 55 55 53 50 49 45 42 39 38 37 36 35 35 34 34 33 33 30 28 29 29 31 32 35 37 39 41 43 45 48 51 54 57
116 113 108 105 104 101 92 88 86 81 76 72 70 65 63 64 59 58 56 53 51 48 46 44 41 39 37 37 36 36 35 34 33 32 33 32 33 34 37 39 40 43 43 46 49 53 56 59 62
116 117 109 104 102 101 93 90 87 84 79 74 71 71 68 64 62 59 58 57 55 52 49 47 45 43 41 39 39 37 37 36 36 36 37 37 37 38 40 42 43 46 47 51 54 57 60 64 67
116 114 108 105 102 100 99 94 88 85 84 80 76 74 70 67 66 63 62 61 58 55 53 51 48 46 44 42 41 41 41 41 40 41 42 42 43 44 45 46 47 50 52 55 58 62 65 68 70
117 118 115 112 109 106 102 101 93 86 84 82 78 76 75 70 69 67 66 64 62 59 57 55 53 51 49 48 46 46 46 45 44 45 46 46 47 48 48 50 53 54 57 59 62 66 69 70 70
115 115 116 116 114 107 103 101 97 89 85 83 80 79 64 73 72 69 67 65 65 62 60 59 57 56 55 53 51 50 50 49 48 48 49 50 50 50 52 54 57 59 61 64 67 69 71 71 68
113 117 119 119 115 112 108 104 100 95 90 86 81 77 70 67 72 72 69 68 68 67 66 62 60 59 58 56 55 55 54 53 54 53 53 55 55 56 57 59 60 62 64 67 70 71 69 69 68
110 117 120 121 117 115 111 107 105 100 96 94 87 82 80 79 77 74 72 72 69 69 69 65 64 64 62 61 60 59 59 59 59 59 58 58 59 60 62 63 65 67 70 71 72 69 69 71 73
109 118 120 121 120 115 116 113 107 106 103 100 96 92 87 84 80 77 77 74 72 71 69 69 69 67 65 66 66 63 62 61 61 60 61 62 63 64 65 67 69 71 72 72 71 69 71 74 76
107 116 121 122 120 119 119 114 111 114 108 106 101 94 92 87 84 82 79 78 76 73 72 70 69 69 70 68 65 65 65 65 65 65 67 67 67 67 69 71 72 72 72 72 69 71 74 77 80
103 108 118 121 118 120 118 118 115 117 113 110 106 101 96 91 86 82 80 77 75 76 75 74 74 75 74 71 70 70 70 70 70 70 70 70 70 72 72 72 72 72 70 70 72 75 77 80 82
92 100 113 116 118 119 120 119 119 117 120 114 110 105 100 96 91 84 79 77 77 78 78 77 77 77 76 74 73 72 72 72 72 72 73 73 73 72 71 73 73 70 70 73 76 78 81 84 86
92 101 110 115 119 121 124 123 122 121 122 120 113 105 101 100 95 89 83 80 79 79 80 80 79 78 77 75 75 74 75 75 74 74 75 75 74 74 75 72 70 69 73 77 80 81 84 87 92
90 99 104 115 119 123 126 125 124 122 124 123 118 110 105 102 98 94 88 83 81 81 81 80 80 80 78 77 76 76 77 76 77 75 75 73 73 72 71 71 71 73 78 80 83 86 88 91 95
87 94 100 109 116 125 127 128 126 122 124 124 120 115 106 103 100 96 94 89 86 84 83 81 81 82 80 77 76 78 77 77 76 74 73 75 73 71 71 73 75 79 81 84 87 92 95 96 98
84 88 95 102 113 122 126 127 125 124 125 126 121 115 112 110 108 103 100 95 92 89 86 84 82 80 80 80 80 79 78 78 77 77 75 75 73 73 74 77 80 82 84 87 92 96 99 101 101
82 84 90 98 107 116 127 126 124 122 123 123 121 120 115 112 111 111 108 103 98 96 93 89 86 83 81 81 79 79 79 79 79 80 80 80 81 83 85 86 86 89 91 94 96 97 98 102 104
78 82 84 93 100 109 121 127 124 124 121 123 122 121 117 112 111 111 111 108 104 101 98 95 92 89 86 84 82 81 79 79 79 80 81 83 85 86 87 90 93 96 97 98 99 99 101 103 105
73 77 80 85 92 98 113 127 125 128 123 123 120 119 116 113 110 109 109 112 109 106 102 99 97 94 92 90 88 86 85 85 85 86 87 88 89 91 93 95 96 98 99 101 102 103 103 106 107
67 70 75 79 85 94 105 108 121 128 127 122 119 117 114 111 109 108 110 109 109 108 105 101 100 98 96 94 92 92 90 90 90 91 92 92 92 94 95 97 99 100 103 104 105 107 109 110 113
58 62 67 73 81 88 91 96 110 123 124 123 122 117 113 111 108 108 109 110 109 107 105 104 103 101 99 97 95 94 94 95 95 95 95 95 96 96 98 100 101 104 105 106 109 110 112 114 116
42 50 54 59 71 80 82 86 97 112 125 126 123 119 117 114 110 108 106 106 108 108 108 107 105 104 102 100 100 99 99 98 98 98 98 98 99 99 102 103 105 105 105 108 110 113 115 116 113
43 46 52 59 62 66 74 83 92 100 110 120 124 122 119 114 107 103 101 99 101 103 105 106 107 106 106 104 103 102 101 101 100 100 100 100 101 102 103 104 105 107 109 110 112 113 112 105 98
36 42 48 53 59 66 70 73 86 93 98 104 110 114 116 113 110 107 105 105 103 103 103 103 104 103 103 103 104 104 103 103 103 103 104 104 104 105 105 105 106 109 111 113 112 103 98 92 91
Wind_Direction
223 224 226 227 226 225 225 228 229 229 232 227 224 226 231 231 233 233 229 232 232 233 234 235 226 224 227 232 233 235 237 237 241 244 247 252 252 258 265 273 281 287 293 300 306 306 305 308 311
222 222 223 225 225 223 224 226 228 228 229 228 225 227 227 230 233 230 229 229 231 235 233 234 224 222 226 227 231 231 233 234 235 239 247 249 252 258 263 272 283 290 297 300 301 302 303 307 310
223 223 222 222 222 222 223 226 226 227 229 228 229 227 228 228 232 230 228 227 228 229 230 228 224 222 222 225 229 231 231 232 233 241 248 248 252 259 265 272 283 291 295 298 302 303 303 305 309
222 223 222 219 219 222 222 223 225 225 227 228 229 226 228 231 232 228 228 227 227 228 227 226 222 220 221 224 227 231 235 236 239 246 246 249 255 262 270 278 282 287 293 298 299 301 303 304 303
220 221 220 219 219 220 220 222 224 226 227 228 229 229 227 229 232 229 228 228 227 228 228 228 225 224 226 229 231 235 240 244 245 245 248 253 260 268 274 278 283 288 295 297 297 298 301 302 302
219 220 220 216 218 221 220 221 223 223 224 225 228 229 229 229 229 230 227 228 228 230 227 230 230 230 231 233 236 239 242 243 246 247 250 257 266 274 279 282 286 290 293 295 297 298 299 302 306
218 219 218 216 217 221 220 220 221 222 222 223 224 227 227 228 227 226 229 226 229 229 230 230 234 235 238 239 240 242 244 245 246 248 254 262 268 272 277 281 285 286 290 294 295 296 300 304 307
218 217 217 216 216 219 218 220 221 221 222 222 223 225 227 228 225 226 228 228 231 231 232 232 235 238 238 241 243 244 244 245 249 253 259 264 272 278 280 282 284 288 291 293 296 298 302 304 306
216 217 217 219 219 220 219 220 221 220 220 222 223 225 226 229 230 228 227 229 230 234 234 236 235 237 240 242 245 248 249 251 255 259 262 265 268 272 277 282 286 289 291 295 297 300 304 305 307
216 217 216 216 215 219 218 217 218 219 219 220 222 224 225 227 229 230 228 228 231 233 237 238 241 242 245 246 248 251 254 256 258 263 266 268 271 274 278 282 287 289 293 295 299 303 303 307 309
213 217 213 215 215 216 218 218 217 218 219 220 220 225 226 225 229 230 230 228 231 233 235 239 241 244 247 249 251 253 255 258 260 264 267 269 273 276 281 283 286 287 290 296 299 302 305 307 308
212 214 214 216 216 215 218 220 219 217 219 220 219 221 226 227 227 230 234 232 230 233 237 239 241 243 246 249 252 254 258 260 263 265 270 273 275 280 283 284 287 290 294 297 300 302 304 306 304
211 212 215 215 216 214 217 218 218 217 217 218 216 219 222 225 227 228 230 234 236 235 237 238 241 243 247 250 254 257 260 263 266 268 271 275 278 280 282 285 288 290 294 298 300 303 303 302 300
211 211 213 215 216 216 217 219 220 216 219 215 216 220 223 225 226 229 230 230 234 237 239 241 243 245 246 249 253 256 259 262 265 269 272 275 277 279 282 285 287 292 295 298 301 301 298 297 298
212 210 212 215 216 217 217 220 220 220 218 220 220 220 224 226 229 230 230 232 232 236 239 240 243 245 246 250 253 256 258 261 265 269 272 275 277 280 283 285 288 293 296 296 298 296 294 296 300
211 209 211 214 216 218 219 219 221 222 220 222 222 224 224 226 228 230 232 233 234 236 238 242 245 246 248 249 252 256 260 263 266 270 272 274 276 279 282 286 290 292 293 294 292 292 294 298 298
211 210 211 214 215 218 220 221 222 224 222 222 223 223 226 227 228 231 234 237 238 238 241 244 247 250 253 255 257 259 261 264 266 268 271 274 276 279 285 287 289 291 291 289 291 294 295 297 299
212 211 213 212 215 218 220 222 223 225 224 224 223 224 225 226 230 231 233 236 239 240 241 242 245 248 252 255 257 260 263 265 267 269 271 274 278 282 284 286 288 289 288 288 291 293 295 298 300
211 210 211 210 215 218 220 221 223 225 229 225 225 226 226 229 229 231 232 236 238 240 242 244 244 247 250 253 257 259 261 264 267 270 273 275 279 281 282 283 285 286 285 289 291 293 296 298 301
212 212 211 212 212 217 221 222 223 226 229 229 227 226 227 228 230 231 233 235 238 240 242 245 247 248 251 253 257 259 261 264 267 271 273 276 277 279 280 282 283 283 286 288 289 292 294 298 300
213 213 212 214 213 215 221 224 225 226 230 233 231 228 228 230 232 233 235 236 238 240 242 244 246 249 251 252 254 257 261 264 266 268 270 273 276 278 280 281 281 283 286 289 292 294 298 298 300
215 215 214 215 215 215 222 224 226 227 230 233 234 232 230 229 231 234 235 236 238 240 242 244 245 248 251 253 255 257 258 261 264 266 268 270 272 273 274 276 279 282 285 287 291 294 296 299 301
217 217 215 216 216 215 220 225 229 229 231 235 236 236 233 231 231 233 236 239 240 241 243 245 246 248 250 252 253 255 259 262 266 268 270 272 273 274 275 277 279 280 283 286 289 292 295 298 301
218 218 218 217 219 219 219 224 228 231 232 234 236 238 237 233 232 233 236 239 240 241 243 245 247 248 249 252 255 256 258 260 263 267 269 271 273 276 278 279 281 283 286 289 291 294 296 298 301
219 222 220 219 221 221 221 223 222 231 233 236 237 239 240 238 235 236 237 239 241 243 244 245 247 249 251 253 254 256 259 261 263 266 268 270 274 276 279 281 284 286 289 290 293 296 298 299 300
221 223 224 222 222 224 225 224 223 231 235 238 240 240 242 243 241 239 240 241 243 244 245 246 248 249 252 254 256 257 259 261 264 266 268 271 274 276 279 281 284 287 289 292 295 296 298 299 301
226 227 228 227 226 227 228 227 226 228 237 239 241 243 244 245 245 242 242 242 244 245 247 248 250 251 253 255 257 259 261 263 265 268 270 273 276 278 280 283 285 288 291 293 295 296 297 300 301
231 235 234 231 229 229 229 229 229 230 233 239 241 243 245 246 246 247 245 243 244 247 248 249 251 252 253 256 258 260 262 264 267 269 272 274 277 279 280 283 286 289 290 292 294 296 298 299 301
226 227 229 229 226 227 227 228 230 232 233 236 240 244 246 248 249 249 250 249 248 249 250 251 252 253 254 256 259 261 264 266 268 271 273 276 278 280 283 284 286 288 290 292 295 296 298 299 298
233 228 227 226 226 224 225 225 229 232 234 236 239 241 245 249 251 251 252 253 253 253 253 254 256 256 257 258 260 262 265 267 270 273 275 277 279 280 283 284 286 288 290 294 295 296 296 296 298
Height
10765 10777 10785 10794 10805 10821 10826 10830 10832 10842 10849 10859 10864 10873 10876 10879 10883 10886 10887 10892 10897 10901 10903 10904 10908 10911 10915 10918 10921 10923 10925 10927 10928 10930 10932 10932 10934 10934 10934 10934 10934 10934 10934 10933 10932 10931 10930 10928 10927
10751 10763 10774 10785 10800 10813 10815 10819 10826 10833 10840 10851 10857 10865 10870 10872 10876 10881 10884 10890 10895 10897 10899 10901 10905 10907 10911 10914 10916 10919 10921 10923 10925 10927 10927 10929 10930 10930 10931 10930 10930 10931 10930 10930 10928 10927 10926 10924 10923
10738 10751 10761 10776 10792 10802 10801 10810 10818 10825 10834 10843 10851 10858 10864 10866 10871 10876 10881 10886 10891 10893 10895 10899 10901 10904 10907 10909 10912 10914 10917 10919 10921 10923 10924 10925 10925 10926 10926 10926 10926 10926 10926 10925 10924 10923 10922 10920 10918
10725 10736 10750 10767 10783 10780 10791 10800 10810 10816 10826 10836 10844 10851 10858 10861 10865 10871 10876 10881 10887 10889 10891 10895 10898 10900 10903 10905 10907 10910 10913 10915 10917 10918 10920 10920 10920 10921 10921 10922 10922 10922 10921 10921 10919 10918 10916 10914 10912
10707 10720 10737 10758 10767 10767 10780 10792 10803 10810 10821 10830 10838 10845 10851 10855 10861 10865 10870 10876 10882 10885 10888 10891 10894 10896 10898 10900 10903 10906 10909 10911 10912 10914 10914 10915 10915 10916 10916 10917 10917 10917 10916 10915 10914 10912 10910 10908 10905
10692 10708 10730 10748 10752 10753 10769 10782 10791 10799 10811 10822 10832 10839 10845 10849 10853 10857 10863 10870 10876 10879 10882 10886 10888 10891 10894 10896 10898 10901 10904 10906 10908 10908 10909 10910 10911 10911 10912 10913 10913 10912 10911 10909 10908 10906 10904 10902 10899
10677 10695 10720 10733 10735 10737 10762 10771 10780 10791 10803 10814 10823 10830 10836 10838 10844 10850 10855 10863 10869 10873 10877 10880 10883 10886 10889 10891 10894 10896 10899 10901 10902 10902 10903 10905 10906 10907 10907 10907 10906 10905 10905 10903 10901 10899 10897 10894 10891
10663 10678 10697 10711 10716 10727 10748 10759 10772 10786 10795 10807 10815 10823 10825 10826 10834 10842 10850 10855 10861 10867 10870 10874 10877 10881 10883 10886 10889 10891 10894 10895 10896 10897 10898 10900 10900 10901 10900 10900 10900 10900 10898 10896 10894 10891 10888 10885 10883
10648 10661 10687 10708 10712 10727 10743 10751 10765 10777 10787 10799 10807 10812 10816 10821 10828 10836 10843 10848 10853 10858 10863 10867 10871 10875 10878 10881 10883 10885 10887 10889 10890 10892 10892 10894 10896 10896 10895 10894 10894 10893 10891 10889 10886 10884 10881 10877 10874
10633 10653 10684 10695 10702 10710 10725 10737 10753 10765 10774 10784 10794 10800 10809 10813 10818 10825 10833 10840 10845 10850 10856 10861 10865 10869 10872 10875 10876 10878 10879 10882 10884 10885 10885 10886 10887 10889 10888 10888 10887 10885 10883 10882 10879 10876 10872 10868 10864
10620 10641 10661 10673 10682 10690 10708 10720 10738 10753 10763 10773 10786 10791 10799 10806 10810 10816 10823 10831 10837 10843 10848 10853 10858 10862 10865 10868 10869 10871 10872 10875 10877 10878 10878 10879 10880 10880 10880 10880 10879 10877 10876 10874 10871 10867 10863 10859 10855
10613 10631 10643 10654 10667 10686 10699 10711 10731 10743 10752 10761 10775 10782 10790 10798 10802 10808 10816 10824 10830 10835 10841 10846 10850 10853 10857 10860 10863 10864 10866 10868 10869 10871 10871 10871 10872 10872 10872 10870 10869 10868 10867 10864 10861 10857 10854 10850 10846
10601 10613 10625 10638 10660 10672 10680 10695 10715 10728 10736 10748 10762 10772 10778 10785 10792 10799 10808 10815 10821 10825 10830 10836 10841 10846 10850 10852 10854 10857 10859 10860 10861 10863 10865 10864 10864 10864 10863 10861 10860 10859 10857 10855 10851 10847 10842 10839 10835
10583 10601 10610 10627 10645 10660 10672 10685 10696 10716 10723 10731 10747 10758 10766 10772 10779 10790 10797 10804 10810 10816 10821 10828 10832 10836 10840 10842 10845 10848 10850 10852 10853 10855 10856 10856 10855 10854 10853 10852 10851 10849 10846 10844 10840 10836 10832 10828 10824
10566 10582 10599 10614 10630 10651 10659 10665 10689 10701 10709 10720 10733 10741 10751 10762 10772 10778 10786 10794 10802 10807 10814 10817 10822 10826 10829 10833 10836 10839 10841 10843 10845 10846 10846 10845 10845 10843 10843 10842 10841 10840 10835 10831 10829 10826 10821 10816 10812
10551 10569 10586 10600 10621 10634 10645 10663 10672 10675 10697 10706 10720 10734 10742 10755 10762 10768 10776 10785 10792 10798 10803 10809 10813 10815 10819 10825 10829 10832 10833 10835 10836 10836 10835 10835 10835 10834 10832 10831 10830 10828 10825 10821 10819 10815 10810 10804 10800
10545 10566 10581 10591 10613 10619 10637 10650 10655 10666 10681 10692 10706 10718 10729 10742 10752 10761 10769 10779 10788 10793 10796 10800 10804 10807 10810 10815 10819 10822 10824 10825 10826 10827 10827 10825 10823 10823 10823 10820 10817 10816 10813 10809 10805 10801 10797 10792 10787
10551 10564 10573 10589 10602 10613 10623 10635 10645 10651 10666 10678 10691 10705 10718 10730 10739 10753 10763 10770 10776 10781 10786 10791 10794 10797 10801 10806 10809 10811 10814 10813 10814 10814 10814 10814 10813 10814 10812 10809 10806 10804 10801 10795 10792 10787 10783 10777 10772
10531 10541 10554 10572 10588 10598 10605 10613 10626 10637 10645 10665 10681 10697 10709 10717 10730 10743 10752 10759 10764 10767 10771 10778 10785 10788 10793 10796 10798 10801 10802 10801 10802 10802 10802 10802 10803 10802 10801 10798 10796 10793 10788 10783 10777 10774 10770 10764 10757
10519 10530 10545 10556 10569 10582 10589 10603 10614 10624 10634 10646 10664 10683 10696 10707 10718 10730 10740 10747 10752 10756 10760 10766 10772 10777 10782 10787 10789 10789 10790 10791 10792 10791 10790 10790 10790 10789 10787 10786 10784 10780 10776 10770 10765 10761 10758 10753 10745
10508 10519 10534 10547 10560 10567 10574 10583 10601 10620 10623 10631 10650 10670 10688 10699 10707 10717 10724 10733 10739 10743 10747 10754 10760 10765 10770 10775 10777 10778 10779 10780 10780 10781 10780 10778 10777 10775 10773 10771 10769 10766 10762 10756 10748 10741 10738 10735 10729
10500 10511 10527 10539 10549 10563 10564 10577 10589 10606 10612 10620 10635 10657 10671 10682 10691 10699 10707 10716 10723 10729 10733 10740 10747 10752 10757 10760 10763 10766 10767 10768 10768 10768 10768 10767 10767 10764 10762 10759 10756 10755 10751 10745 10737 10729 10723 10716 10710
10491 10503 10518 10527 10537 10549 10559 10566 10582 10594 10605 10612 10622 10634 10651 10666 10679 10686 10693 10702 10711 10716 10719 10724 10732 10738 10742 10745 10749 10752 10754 10753 10753 10753 10752 10750 10750 10750 10749 10747 10744 10740 10737 10735 10730 10722 10713 10704 10696
10483 10494 10508 10520 10529 10543 10553 10555 10567 10577 10593 10597 10606 10614 10630 10649 10662 10672 10682 10687 10692 10698 10705 10712 10717 10722 10727 10732 10735 10738 10740 10741 10740 10739 10737 10735 10733 10733 10731 10728 10725 10722 10719 10716 10712 10705 10699 10690 10681
10478 10489 10501 10512 10523 10537 10537 10542 10569 10560 10574 10582 10592 10600 10611 10629 10647 10658 10664 10669 10676 10683 10691 10698 10702 10707 10712 10717 10721 10724 10725 10726 10726 10726 10724 10722 10721 10718 10714 10711 10706 10701 10698 10694 10690 10684 10678 10671 10663
10474 10483 10494 10504 10514 10518 10522 10545 10565 10551 10558 10568 10577 10588 10599 10613 10627 10639 10645 10651 10658 10666 10673 10681 10687 10692 10696 10701 10705 10708 10710 10710 10710 10710 10709 10708 10706 10704 10700 10696 10690 10685 10679 10674 10669 10664 10658 10651 10643
10470 10479 10484 10494 10501 10506 10520 10541 10544 10546 10546 10554 10561 10572 10583 10592 10603 10615 10627 10636 10644 10650 10657 10664 10669 10675 10680 10685 10689 10691 10692 10693 10693 10693 10693 10692 10691 10687 10683 10679 10675 10670 10662 10655 10649 10644 10637 10631 10623
10461 10464 10475 10483 10489 10494 10513 10524 10531 10529 10531 10532 10545 10554 10560 10569 10581 10590 10602 10617 10626 10633 10639 10646 10653 10659 10663 10668 10670 10673 10674 10675 10676 10676 10675 10676 10674 10670 10666 10663 10657 10653 10647 10641 10633 10625 10618 10610 10602
10444 10453 10459 10461 10472 10483 10493 10501 10504 10508 10517 10519 10529 10536 10542 10549 10563 10576 10588 10599 10607 10614 10621 10628 10634 10640 10646 10650 10652 10655 10657 10658 10659 10658 10658 10657 10654 10651 10648 10644 10639 10634 10628 10621 10616 10608 10600 10591 10581
10438 10441 10445 10450 10456 10461 10470 10485 10483 10490 10497 10504 10513 10520 10527 10537 10548 10559 10568 10575 10583 10592 10600 10607 10613 10620 10626 10631 10634 10636 10639 10639 10640 10639 10639 10638 10636 10632 10630 10624 10620 10615 10609 10603 10597 10588 10580 10571 10562